TimeCST,TemperatureF,Dew PointF,Humidity,Sea Level PressureIn,VisibilityMPH,Wind Direction,Wind SpeedMPH,Gust SpeedMPH,PrecipitationIn,Events,Conditions,WindDirDegrees,DateUTC
12:14 AM,-0.4,-5.8,78,30.83,7.0,North,13.8,-,N/A,,Overcast,350,2013-11-23 06:14:00
12:35 AM,-0.4,-5.8,78,30.83,10.0,NNW,12.7,-,N/A,,Overcast,340,2013-11-23 06:35:00
12:55 AM,-2.2,-5.8,85,30.84,10.0,NNW,9.2,-,N/A,,Overcast,330,2013-11-23 06:55:00
1:14 AM,-2.2,-5.8,85,30.84,7.0,NNW,10.4,-,N/A,,Overcast,340,2013-11-23 07:14:00
1:34 AM,-2.2,-5.8,85,30.84,5.0,NNW,11.5,-,N/A,,Overcast,340,2013-11-23 07:34:00
1:55 AM,-2.2,-7.6,78,30.84,10.0,NNW,11.5,-,N/A,,Scattered Clouds,340,2013-11-23 07:55:00
2:14 AM,-2.2,-7.6,78,30.85,10.0,NNW,11.5,-,N/A,,Clear,340,2013-11-23 08:14:00
2:34 AM,-2.2,-7.6,78,30.85,10.0,North,11.5,-,N/A,,Clear,350,2013-11-23 08:34:00
2:55 AM,-4.0,-7.6,85,30.85,10.0,North,10.4,-,N/A,,Clear,350,2013-11-23 08:55:00
3:14 AM,-4.0,-9.4,78,30.85,10.0,NNW,9.2,-,N/A,,Clear,340,2013-11-23 09:14:00
3:35 AM,-4.0,-9.4,78,30.85,10.0,NNW,9.2,-,N/A,,Clear,340,2013-11-23 09:35:00
3:55 AM,-5.8,-9.4,84,30.85,10.0,North,9.2,-,N/A,,Clear,350,2013-11-23 09:55:00
4:14 AM,-5.8,-9.4,84,30.85,10.0,North,9.2,-,N/A,,Clear,350,2013-11-23 10:14:00
4:35 AM,-5.8,-9.4,84,30.87,10.0,NNW,6.9,-,N/A,,Clear,330,2013-11-23 10:35:00
4:55 AM,-5.8,-9.4,84,30.87,10.0,NNW,6.9,-,N/A,,Clear,330,2013-11-23 10:55:00
5:14 AM,-5.8,-11.2,77,30.87,10.0,NNW,6.9,-,N/A,,Clear,330,2013-11-23 11:14:00
5:34 AM,-5.8,-11.2,77,30.87,10.0,North,5.8,-,N/A,,Clear,350,2013-11-23 11:34:00
5:55 AM,-7.6,-11.2,84,30.88,10.0,NNW,6.9,-,N/A,,Clear,340,2013-11-23 11:55:00
6:14 AM,-7.6,-11.2,84,30.88,10.0,NNW,5.8,-,N/A,,Clear,340,2013-11-23 12:14:00
6:35 AM,-7.6,-13.0,77,30.88,10.0,NNW,4.6,-,N/A,,Clear,330,2013-11-23 12:35:00
6:55 AM,-9.4,-13.0,84,30.89,10.0,North,5.8,-,N/A,,Clear,350,2013-11-23 12:55:00
7:14 AM,-9.4,-13.0,84,30.88,10.0,North,4.6,-,N/A,,Clear,10,2013-11-23 13:14:00
7:35 AM,-9.4,-14.8,77,30.88,10.0,North,4.6,-,N/A,,Clear,360,2013-11-23 13:35:00
7:55 AM,-9.4,-14.8,77,30.89,10.0,NNW,3.5,-,N/A,,Clear,330,2013-11-23 13:55:00
8:14 AM,-7.6,-11.2,84,30.90,10.0,WNW,4.6,-,N/A,,Clear,290,2013-11-23 14:14:00
8:35 AM,-7.6,-11.2,84,30.89,10.0,Calm,Calm,-,N/A,,Clear,0,2013-11-23 14:35:00
8:55 AM,-5.8,-9.4,84,30.90,10.0,NW,4.6,-,N/A,,Clear,310,2013-11-23 14:55:00
9:14 AM,-5.8,-9.4,84,30.89,10.0,NNW,4.6,-,N/A,,Clear,330,2013-11-23 15:14:00
9:35 AM,-4.0,-9.4,78,30.90,10.0,NW,6.9,-,N/A,,Clear,310,2013-11-23 15:35:00
9:54 AM,-2.2,-9.4,71,30.91,10.0,WNW,6.9,-,N/A,,Clear,300,2013-11-23 15:54:00
10:14 AM,-2.2,-7.6,78,30.91,10.0,WNW,6.9,-,N/A,,Clear,300,2013-11-23 16:14:00
10:35 AM,-2.2,-7.6,78,30.90,10.0,NW,3.5,-,N/A,,Clear,320,2013-11-23 16:35:00
10:54 AM,-0.4,-7.6,72,30.90,10.0,WNW,4.6,-,N/A,,Clear,290,2013-11-23 16:54:00
11:14 AM,-0.4,-7.6,72,30.90,10.0,WNW,3.5,-,N/A,,Clear,300,2013-11-23 17:14:00
11:35 AM,-0.4,-5.8,78,30.90,10.0,West,5.8,-,N/A,,Clear,270,2013-11-23 17:35:00
11:54 AM,1.4,-5.8,72,30.89,10.0,West,3.5,-,N/A,,Clear,270,2013-11-23 17:54:00
12:14 PM,1.4,-5.8,72,30.88,10.0,West,4.6,-,N/A,,Clear,260,2013-11-23 18:14:00
12:35 PM,1.4,-4.0,78,30.88,10.0,West,5.8,-,N/A,,Clear,260,2013-11-23 18:35:00
12:54 PM,3.2,-2.2,78,30.87,10.0,West,5.8,-,N/A,,Clear,260,2013-11-23 18:54:00
1:14 PM,3.2,-2.2,78,30.86,10.0,SW,6.9,-,N/A,,Clear,230,2013-11-23 19:14:00
1:35 PM,3.2,-2.2,78,30.85,10.0,WSW,6.9,-,N/A,,Clear,240,2013-11-23 19:35:00
1:54 PM,3.2,-2.2,78,30.85,10.0,WSW,5.8,-,N/A,,Clear,250,2013-11-23 19:54:00
2:14 PM,5.0,-2.2,72,30.84,10.0,West,5.8,-,N/A,,Clear,270,2013-11-23 20:14:00
2:34 PM,5.0,-2.2,72,30.83,10.0,West,5.8,-,N/A,,Clear,260,2013-11-23 20:34:00
2:54 PM,5.0,-2.2,72,30.81,10.0,SW,3.5,-,N/A,,Clear,230,2013-11-23 20:54:00
3:15 PM,5.0,-2.2,72,30.80,10.0,South,3.5,-,N/A,,Clear,190,2013-11-23 21:15:00
3:34 PM,5.0,-2.2,72,30.80,10.0,SSW,4.6,-,N/A,,Clear,210,2013-11-23 21:34:00
3:55 PM,5.0,-2.2,72,30.78,10.0,SSW,3.5,-,N/A,,Clear,200,2013-11-23 21:55:00
4:15 PM,5.0,-2.2,72,30.77,10.0,South,4.6,-,N/A,,Clear,190,2013-11-23 22:15:00
4:34 PM,3.2,-2.2,78,30.77,10.0,South,4.6,-,N/A,,Clear,180,2013-11-23 22:34:00
4:55 PM,1.4,-2.2,85,30.77,10.0,South,5.8,-,N/A,,Clear,170,2013-11-23 22:55:00
5:15 PM,1.4,-4.0,78,30.75,10.0,SSE,6.9,-,N/A,,Clear,150,2013-11-23 23:15:00
5:34 PM,-0.4,-4.0,85,30.75,10.0,SSE,5.8,-,N/A,,Clear,160,2013-11-23 23:34:00
5:55 PM,-0.4,-4.0,85,30.74,10.0,SSE,6.9,-,N/A,,Clear,160,2013-11-23 23:55:00
6:15 PM,1.4,-4.0,78,30.74,10.0,South,6.9,-,N/A,,Clear,170,2013-11-24 00:15:00
6:34 PM,1.4,-4.0,78,30.73,10.0,South,8.1,-,N/A,,Clear,180,2013-11-24 00:34:00
6:55 PM,1.4,-2.2,85,30.72,10.0,South,9.2,-,N/A,,Clear,180,2013-11-24 00:55:00
7:15 PM,1.4,-2.2,85,30.71,10.0,South,6.9,-,N/A,,Clear,180,2013-11-24 01:15:00
7:34 PM,1.4,-2.2,85,30.71,10.0,South,6.9,-,N/A,,Clear,190,2013-11-24 01:34:00
7:55 PM,1.4,-2.2,85,30.69,10.0,South,8.1,-,N/A,,Clear,170,2013-11-24 01:55:00
8:15 PM,1.4,-2.2,85,30.68,10.0,South,8.1,-,N/A,,Clear,170,2013-11-24 02:15:00
8:34 PM,1.4,-2.2,85,30.67,10.0,SSE,8.1,-,N/A,,Clear,150,2013-11-24 02:34:00
8:55 PM,1.4,-2.2,85,30.66,10.0,SSE,8.1,-,N/A,,Clear,160,2013-11-24 02:55:00
9:15 PM,1.4,-2.2,85,30.63,10.0,SSE,10.4,-,N/A,,Clear,160,2013-11-24 03:15:00
9:34 PM,3.2,-0.4,85,30.61,10.0,South,11.5,-,N/A,,Clear,170,2013-11-24 03:34:00
9:55 PM,3.2,-0.4,85,30.62,10.0,South,10.4,-,N/A,,Clear,170,2013-11-24 03:55:00
10:15 PM,3.2,-0.4,85,30.63,10.0,South,9.2,-,N/A,,Clear,170,2013-11-24 04:15:00
10:34 PM,3.2,-0.4,85,30.62,10.0,South,9.2,-,N/A,,Scattered Clouds,180,2013-11-24 04:34:00
10:55 PM,5.0,-0.4,78,30.61,10.0,South,11.5,-,N/A,,Scattered Clouds,180,2013-11-24 04:55:00
11:15 PM,6.8,1.4,79,30.59,10.0,South,13.8,-,N/A,,Clear,180,2013-11-24 05:15:00
11:34 PM,6.8,1.4,79,30.58,10.0,South,13.8,-,N/A,,Clear,180,2013-11-24 05:34:00
11:55 PM,6.8,1.4,79,30.54,10.0,South,16.1,-,N/A,,Clear,180,2013-11-24 05:55:00